{"data":{"norad_id":61854,"intl_designator":"2024-202K","name":"STARLINK-32486","alt_names":[],"object_type":"PAYLOAD","status":"ACTIVE","operator":null,"country":"US","launch_date":"2024-11-07","launch_site_code":"AFETR","launch_vehicle":null,"mission":null,"orbit_class":"UNKNOWN","rcs_meters":null,"size_class":null,"mass_kg":null,"dimensions":null,"purposes":["comms"],"wikipedia_slug":null,"has_3d_model":false,"image_url":null,"decayed_at":null,"tle_current":{"epoch":"2026-09-21T06:47:13.161408Z","epoch_age_seconds":121192,"freshness":"FRESH","line1":"1 61854U 24202K   26264.28279122  .00000856  00000+0  40632-4 0  9994","line2":"2 61854  43.0000 213.1593 0001145 273.7653  86.3068 15.27587118105250","mean_motion":15.27587118,"eccentricity":0.0001145,"inclination_deg":43,"raan_deg":213.1593,"arg_perigee_deg":273.7653,"mean_anomaly_deg":86.3068,"bstar":4.0632e-5,"rev_number":10525,"period_min":94.266309464911,"perigee_km":482.24217890216,"apogee_km":483.8133856373,"semimajor_km":6861.1647822697,"source":"CELESTRAK","updated_at":"2026-09-22T09:00:49.441504Z"}}}